Tanger, Morocco

9:46 PM WET on December 16, 2017 (GMT +0000)
Tanger

Weather History for GMTT - October, 2013

Change the Weather History Date:

Thursday, October 10, 2013

  Actual Average Record
Temperature  
Mean Temperature 75 °F -  
Max Temperature 82 °F 70 °F 84 °F (2011)
Min Temperature 68 °F 56 °F 32 °F (2006)
Cooling Degree Days 10    
Growing Degree Days 25 (Base 50)    
Moisture  
Dew Point 61 °F    
Average Humidity 64    
Maximum Humidity 78    
Minimum Humidity 40    
Precipitation  
Precipitation 0.00 in 0.12 in - ()
Sea Level Pressure  
Sea Level Pressure 29.91 in    
Wind  
Wind Speed 17 mph ()    
Max Wind Speed 24 mph    
Max Gust Speed -    
Visibility 5.4 miles    
Events      
Averages and records for this station are not official NWS values.
T = Trace of Precipitation, MM = Missing Value Source: Averaged Metar Reports

Daily Weather History Graph

Daily Weather History Graph

Search for Another Location

Airport or City:

Trip Planner

Search our weather history database for the weather conditions in past years. The results will help you decide how hot, cold, wet, or windy it might be!

Date:

Astronomy

Oct. 10, 2013 Rise Set
Actual Time 7:25 AM WEST 6:54 PM WEST
Civil Twilight 7:00 AM WEST 7:20 PM WEST
Nautical Twilight 6:30 AM WEST 7:49 PM WEST
Astronomical Twilight 6:01 AM WEST 8:19 PM WEST
Moon 12:57 PM WEST (10/10) 11:24 PM WEST (10/10)
Length of Visible Light 12h 19m
Length of Day
11h 28m
Waxing Crescent, 33% of the Moon is Illuminated
Oct 10
Waxing Crescent
Oct 12
First Quarter
Oct 19
Full
Oct 27
Last Quarter
Nov 3
New

Hourly Weather History & Observations

Time (WEST) Temp. Heat Index Dew Point Humidity Pressure Visibility Wind Dir Wind Speed Gust Speed Precip Events Conditions
12:00 AM 71.6 °F - 60.8 °F 69% 29.92 in 5.0 mi East 21.9 mph - N/A   Partly Cloudy
12:30 AM 71.6 °F - 60.8 °F 69% 29.92 in 3.7 mi East 21.9 mph - N/A   Partly Cloudy
1:00 AM 72 °F - 61 °F 59% 29.91 in 5 mi East 24.2 mph - -   Scattered Clouds
1:00 AM 71.6 °F - 60.8 °F 69% 29.89 in 5.0 mi East 24.2 mph - N/A   Partly Cloudy
4:00 AM 71 °F - 61 °F 62% 29.91 in 5 mi East 21.9 mph - -   Partly Cloudy
4:00 AM 71.6 °F - 60.8 °F 69% 29.89 in 5.0 mi East 21.9 mph - N/A   Scattered Clouds
4:30 AM 71.6 °F - 60.8 °F 69% 29.89 in 3.1 mi East 20.7 mph - N/A   Scattered Clouds
5:00 AM 71.6 °F - 60.8 °F 69% 29.89 in 3.1 mi East 19.6 mph - N/A   Scattered Clouds
5:30 AM 71.6 °F - 60.8 °F 69% 29.89 in - East 19.6 mph - N/A   Unknown
6:00 AM 71.6 °F - 60.8 °F 69% 29.89 in - East 19.6 mph - N/A   Unknown
6:30 AM 71.6 °F - 60.8 °F 69% 29.89 in - East 18.4 mph - N/A   Unknown
7:00 AM 71 °F - 60 °F 61% 29.90 in 5 mi East 17.3 mph - -   Scattered Clouds
7:00 AM 71.6 °F - 60.8 °F 69% 29.89 in 5.0 mi East 17.3 mph - N/A   Partly Cloudy
7:30 AM 69.8 °F - 60.8 °F 73% 29.89 in 5.0 mi East 16.1 mph - N/A   Partly Cloudy
8:00 AM 71.6 °F - 60.8 °F 69% 29.89 in 5.0 mi East 17.3 mph - N/A   Partly Cloudy
8:30 AM 71.6 °F - 60.8 °F 69% 29.92 in 5.0 mi East 16.1 mph - N/A   Partly Cloudy
9:00 AM 73.4 °F - 62.6 °F 69% 29.92 in 5.0 mi East 17.3 mph - N/A   Partly Cloudy
9:30 AM 75.2 °F - 62.6 °F 65% 29.92 in 5.0 mi East 19.6 mph - N/A   Partly Cloudy
10:00 AM 76 °F - 62 °F 53% 29.94 in 5 mi East 19.6 mph - -   Scattered Clouds
10:00 AM 77.0 °F - 62.6 °F 61% 29.92 in 5.0 mi East 19.6 mph - N/A   Partly Cloudy
10:30 AM 77.0 °F - 62.6 °F 61% 29.95 in 5.0 mi East 18.4 mph - N/A   Partly Cloudy
11:00 AM 78.8 °F - 60.8 °F 54% 29.95 in 6.2 mi East 17.3 mph - N/A   Partly Cloudy
11:30 AM 80.6 °F 81.5 °F 60.8 °F 51% 29.95 in 6.2 mi East 18.4 mph - N/A   Partly Cloudy
12:00 PM 80.6 °F 81.5 °F 60.8 °F 51% 29.95 in 6.2 mi East 18.4 mph - N/A   Partly Cloudy
12:30 PM 80.6 °F 81.8 °F 62.6 °F 54% 29.92 in 6.2 mi East 18.4 mph - N/A   Partly Cloudy
1:00 PM 82 °F - 62 °F 40% 29.93 in 6 mi ESE 17.3 mph - -   Scattered Clouds
1:00 PM 82.4 °F 83.4 °F 62.6 °F 51% 29.92 in 6.2 mi ESE 17.3 mph - N/A   Partly Cloudy
1:30 PM 82.4 °F 83.4 °F 62.6 °F 51% 29.89 in 6.2 mi East 19.6 mph - N/A   Partly Cloudy
2:00 PM 82.4 °F 82.9 °F 60.8 °F 48% 29.89 in 6.2 mi East 18.4 mph - N/A   Partly Cloudy
3:00 PM 80.6 °F 81.8 °F 62.6 °F 54% 29.89 in 6.2 mi ENE 17.3 mph - N/A   Partly Cloudy
4:00 PM 79 °F - 62 °F 47% 29.89 in 6 mi ENE 16.1 mph - -   Scattered Clouds
4:00 PM 78.8 °F - 62.6 °F 57% 29.89 in 6.2 mi ENE 16.1 mph - N/A   Partly Cloudy
5:00 PM 77.0 °F - 62.6 °F 61% 29.89 in 6.2 mi ENE 17.3 mph - N/A   Partly Cloudy
6:00 PM 75.2 °F - 62.6 °F 65% 29.89 in 6.2 mi ENE 16.1 mph - N/A   Partly Cloudy
7:00 PM 73 °F - 62 °F 59% 29.89 in 6 mi ENE 10.4 mph - -   Scattered Clouds
7:00 PM 73.4 °F - 62.6 °F 69% 29.89 in 6.2 mi ENE 10.4 mph - N/A   Partly Cloudy
8:00 PM 71.6 °F - 60.8 °F 69% 29.89 in 6.2 mi East 10.4 mph - N/A   Partly Cloudy
9:00 PM 69.8 °F - 60.8 °F 73% 29.89 in 5.0 mi ENE 8.1 mph - N/A   Partly Cloudy
9:30 PM 69.8 °F - 60.8 °F 73% 29.89 in 5.0 mi ENE 10.4 mph - N/A   Partly Cloudy
10:00 PM 69 °F - 61 °F 68% 29.92 in 5 mi ENE 11.5 mph - -   Scattered Clouds
10:00 PM 68.0 °F - 60.8 °F 78% 29.92 in 5.0 mi ENE 11.5 mph - N/A   Partly Cloudy
10:30 PM 68.0 °F - 60.8 °F 78% 29.92 in 5.0 mi ENE 10.4 mph - N/A   Partly Cloudy
11:00 PM 68.0 °F - 60.8 °F 78% 29.92 in 5.0 mi East 11.5 mph - N/A   Partly Cloudy
11:30 PM 68.0 °F - 60.8 °F 78% 29.92 in 6.2 mi East 11.5 mph - N/A   Partly Cloudy